• MPC Preparation (Info)

  • MPEC 2022-Y136 : 2022 YT3

    The following Minor Planet Electronic Circular may be linked-to from your own Web pages, but must not otherwise be redistributed electronically.

    A form allowing access to any MPEC is at the bottom of this page.


    Read MPEC 2022-Y135 Read MPEC 2022-Y137


    M.P.E.C. 2022-Y136                            Issued 2022 December 25, 02:20 UT
    
         The Minor Planet Electronic Circulars contain information on unusual
             minor planets, routine data on comets and natural satellites,
             and occasional editorial announcements.  They are published
        on behalf of Division F of the International Astronomical Union by the
              Minor Planet Center, Smithsonian Astrophysical Observatory,
                              Cambridge, MA 02138, U.S.A.
    			  
                 Prepared using the Tamkin Foundation Computer Network
    
                                  MPC@CFA.HARVARD.EDU
                URL https://www.minorplanetcenter.net/    ISSN 1523-6714
    
                                    2022 YT3                                 
    
    
    Observations:
         K22Y03T*1C2022 12 23.20192903 23 32.226+28 56 39.26         20.33GVEY136G96
         K22Y03T 1C2022 12 23.21243603 23 35.668+28 55 10.74         20.18GVEY136G96
         K22Y03T 1C2022 12 23.21804703 23 37.493+28 54 23.40         20.04GVEY136G96
         K22Y03T 1C2022 12 23.22366703 23 39.347+28 53 35.52         20.11GVEY136G96
         K22Y03T KC2022 12 23.29560503 24 03.546+28 43 13.40         20.72GVEY136I52
         K22Y03T KC2022 12 23.29636203 24 03.812+28 43 06.60         20.58GVEY136I52
         K22Y03T KC2022 12 23.29713903 24 04.057+28 42 59.65         20.26GVEY136I52
         K22Y03T KC2022 12 23.29790903 24 04.324+28 42 53.17         20.41GVEY136I52
         K22Y03T 1C2022 12 23.86163 03 28 07.89 +27 19 00.3          20.2 VXEY136033
         K22Y03T 1C2022 12 23.86312 03 28 08.46 +27 18 46.6          20.1 VXEY136033
         K22Y03T 1C2022 12 23.86406 03 28 08.82 +27 18 37.4          20.6 VXEY136033
         K22Y03T KC2022 12 24.14159803 30 14.05 +26 36 04.2          20.0 GXEY136858
         K22Y03T KC2022 12 24.14701703 30 16.06 +26 35 12.8          20.1 GXEY136858
         K22Y03T KC2022 12 24.15249303 30 18.10 +26 34 21.0          20.2 GXEY136858
         K22Y03T 1C2022 12 24.20152903 30 37.156+26 26 39.98         20.26GVEY136G96
         K22Y03T 1C2022 12 24.20713303 30 39.222+26 25 45.55         20.65GVEY136G96
         K22Y03T 1C2022 12 24.21274003 30 41.260+26 24 51.44         20.22GVEY136G96
         K22Y03T 1C2022 12 24.21836303 30 43.337+26 23 56.76         20.10GVEY136G96
         K22Y03T 1C2022 12 24.84404 03 35 34.86 +24 37 29.6          20.2 VXEY136033
         K22Y03T 1C2022 12 24.84462 03 35 35.09 +24 37 23.8          20.0 VXEY136033
         K22Y03T 1C2022 12 24.84519 03 35 35.33 +24 37 17.6          20.3 VXEY136033
    
    Observer details:
    033 Karl Schwarzschild Observatory, Tautenburg.  Observers S. Melnikov, C.
        Hoegner, F. Ludwig, B. Stecklum.  Measurer B. Stecklum.  1.34-m f/3
        Schmidt + CCD.
    858 Tebbutt Observatory, Edgewood.  Observer F. B. Zoltowski.  0.51-m f/8.1
        Schmidt-Cassegrain + CCD.
    G96 Mt. Lemmon Survey.  Observer J. K. Hogan.  Measurers E. J. Christensen, D.
        Fay, J. B. Fazekas, D. C. Fuls, A. R. Gibbs, A. D. Grauer, H. Groeller, J.
        K. Hogan, R. A. Kowalski, S. M. Larson, G. J. Leonard, D. Rankin, R. L.
        Seaman, A. Serrano, F. C. Shelly, K. W. Wierzchos.  1.5-m reflector + 10K
        CCD.
    I52 Steward Observatory, Mt. Lemmon Station.  Observer R. A. Kowalski.
        Measurers E. J. Christensen, D. Fay, J. B. Fazekas, D. C. Fuls, A. R.
        Gibbs, A. D. Grauer, H. Groeller, J. K. Hogan, R. A. Kowalski, S. M.
        Larson, G. J. Leonard, D. Rankin, R. L. Seaman, A. Serrano, F. C. Shelly,
        K. W. Wierzchos.  1.0-m prime focus + CCD.
    
    Orbital elements:
    2022 YT3                                                 Earth MOID = 0.0258 AU
    Epoch 2023 Feb. 25.0 TT = JDT 2460000.5                 Veres                   
    M  20.71983              (2000.0)            P               Q                  
    n   0.49768608     Peri.  201.97580     -0.41608862     -0.89967767             
    a   1.5770025      Node   272.81915     +0.85273924     -0.33561134             
    e   0.3688846      Incl.    7.60020     +0.31576265     -0.27918652             
    P   1.98           H   25.77          G   0.15           U   8                  
    Residuals in seconds of arc
    221223 G96  0.2+  0.2-    221223 I52  0.1-  0.2+    221224 G96  0.1+  0.0
    221223 G96  0.2+  0.1-    221223 033  0.3-  0.0     221224 G96  0.2+  0.2-
    221223 G96  0.1-  0.1+    221223 033  0.1-  0.1+    221224 G96  0.1-  0.1+
    221223 G96  0.0   0.0     221223 033  0.0   0.5-    221224 G96  0.0   0.0
    221223 I52  0.1+  0.2+    221224 858  0.2-  0.4+    221224 033  0.0   0.1-
    221223 I52  0.2+  0.0     221224 858  0.1-  0.2+    221224 033  0.1-  0.2+
    221223 I52  0.1-  0.1-    221224 858  0.1+  0.3+    221224 033  0.1-  0.0
    
    Ephemeris:
    2022 YT3                 a,e,i = 1.58, 0.37, 8                   q = 0.9953
    Date    TT    R. A. (2000) Decl.     Delta      r    Elong.  Phase     V
    2022 11 25    02 29 24.8 +47 40 46   0.1529  1.1189   147.2    28.5    23.2
    ...
    2022 12 10    02 35 31.1 +43 59 29   0.09243 1.0598   142.6    34.3    22.1
    ...
    2022 12 18    02 56 23.3 +37 42 05   0.06346 1.0349   142.1    35.8    21.3
    ...
    2022 12 24    03 29 08.0 +26 59 02   0.04419 1.0198   144.0    34.5    20.5
    2022 12 25    03 36 48.4 +24 11 28   0.04137 1.0176   144.5    34.1    20.3
    2022 12 26    03 45 17.2 +20 58 40   0.03871 1.0155   144.9    33.8    20.2
    ...
    2023 01 01    04 56 58.8 -09 06 50   0.02865 1.0050   138.6    40.3    19.7
    ...
    2023 01 09    07 24 04.5 -48 11 23   0.03830 0.9968   109.6    68.3    21.1
    ...
    2023 01 24    10 24 11.4 -57 57 38   0.08367 1.0004    98.6    76.6    23.1
    
    M. P. C. Staff               (C) Copyright 2022 MPC           M.P.E.C. 2022-Y136
    


    Read MPEC 2022-Y135 Read MPEC 2022-Y137


    MPEC number:

    Enter an MPEC number in one of the following forms:

    • 1997-B01 (the full form)
    • J97B01 (the packed version of the full form)
    • B01 (the abbreviated form)